Location: Bakov nad Jizerou
(50.4784°N, 14.9394°E)
Time: 22:42:40
(UTC+00:00)

Okean 1-7 Rocket - Pass Details

Date: 16 June 2021
Orbit: 616 x 649 km, 82.5° (Epoch: 23 July)

Event Time Altitude Azimuth Distance (km) Brightness Sun altitude
Exits shadow 23:06:11 25° 210° (SSW) 1,272 4.7 -16.1°
Maximum altitude 23:08:38 61° 283° (WNW) 723 3.9 -16.1°
Drops below altitude 10° 23:13:04 10° 4° (N) 2,017 7.6 -16.1°
Sets 23:15:20 0° 8° (N) 2,923 8.9 -16.1°
